Taurus 1
1 44530U 19059C   25012.77042844  .00008812  00000-0  17646-2 0  9991
2 44530  98.5895 145.7243 0010147 132.9724 227.2328 14.61999264282312
Duchifat 3
1 44854U 19089C   25012.75376100  .00029755  00000-0  96433-3 0  9997
2 44854  36.9471 204.1352 0010202  40.0016 320.1486 15.31106936280166
TO-108
1 44881U 19093C   25012.82542358  .00001522  00000-0  18449-3 0  9993
2 44881  97.8095  91.5191 0014003   2.2514 357.8761 14.84983865274144
FloripaSat 1
1 44885U 19093G   25012.77251479  .00007170  00000-0  65273-3 0  9994
2 44885  97.8269 100.3432 0010760 344.7968  15.2928 14.95437340274639
RS-44
1 44909U 19096E   25012.47975173  .00000002  00000-0 -29159-4 0  9997
2 44909  82.5239 325.6965 0216374 281.9874  75.7049 12.79737739235743
UPMSat 2
1 46276U 20061E   25012.75909670  .00033324  00000-0  60301-3 0  9995
2 46276  97.2687  84.2605 0001918  90.3874 269.7598 15.49601613242449
AmicalSat
1 46287U 20061R   25010.85863821  .11283921  24654-5  56408-3 0  9994
2 46287  97.2840  89.8720 0009935 281.1985  78.8199 16.41970930241877
SALSAT
1 46495U 20068K   25012.46568792  .00009833  00000-0  47242-3 0  9996
2 46495  97.8431 344.2151 0011220 322.9757  37.0701 15.19000364236012
CubeSX-Sirius-HSE
1 47951U 21022V   25012.83784488  .00056255  00000-0  10977-2 0  9992
2 47951  97.4389 279.0997 0012146 100.7475 259.5143 15.47238305210728
CubeSX-HSE
1 47952U 21022W   25012.82608946  .00058367  00000-0  11270-2 0  9999
2 47952  97.4387 279.2485 0012040 100.1311 260.1297 15.47534621210736
KSU-Cubesat
1 47954U 21022Y   25012.72009366  .00113654  00000-0  13699-2 0  9999
2 47954  97.4379 282.3942 0011242  91.5417 268.7127 15.60335681210641
GRBAlpha
1 47959U 21022AD  25012.59143212  .00055185  00000-0  10700-2 0  9992
2 47959  97.4386 279.1732 0011962 100.6842 259.5755 15.47429742209525
Orbicraft-Zorkiy
1 47960U 21022AE  25012.78313719  .00082235  00000-0  12050-2 0  9992
2 47960  97.4388 281.9796 0011249  94.2401 266.0139 15.55211387210385
TUBIN
1 48900U 21059X   25012.75057846  .00030599  00000-0  64960-3 0  9994
2 48900  97.6622 171.9111 0005423  59.9154 300.2631 15.44972640197108
LEDSAT
1 49069U 21073D   25012.75816047  .00035573  00000-0  85758-3 0  9998
2 49069  97.4118  90.3283 0013097 256.4626 103.5161 15.41064786188530
CUTE
1 49263U 21088D   25012.45773958  .00038219  00000-0  10249-2 0  9992
2 49263  97.4722  85.1207 0010578  64.4529 295.7808 15.37821800181588
TeikyoSat 4
1 49396U 21102B   25012.69332979  .00002344  00000-0  16257-3 0  9992
2 49396  97.4327  56.3841 0011093 282.5677  77.4309 15.06495891174272
Z-Sat
1 49399U 21102E   25012.84620102  .00005426  00000-0  31663-3 0  9992
2 49399  97.4039  58.8126 0017231 254.7362 105.1965 15.12225275174631
KOSEN 1
1 49402U 21102H   25012.69184550  .00008189  00000-0  41718-3 0  9993
2 49402  97.3953  61.0764 0015686 232.8409 127.1393 15.16933335174844
HO-113
1 50466U 21131B   25012.82577756  .00000935  00000-0  30797-3 0  9992
2 50466  98.5179 102.9258 0003738 206.0977 154.0023 14.40444020160174
IRIS-A
1 51044U 22002BN  25012.46093528  .00052565  00000-0  85385-3 0  9992
2 51044  97.3537  86.5386 0004245  10.5568 349.5774 15.52545342166633
Foresail-1
1 52766U 22057AL  25012.35743777  .00048966  00000-0  79747-3 0  9995
2 52766  97.5971 151.8080 0005559  99.7851 260.4029 15.52482567146652
SNUGLITE 2
1 52899U 22065F   25012.81567159  .00002056  00000-0  41545-3 0  9995
2 52899  98.1440 156.5126 0007027 210.0280 150.0519 14.62423306134882
IO-117
1 53106U 22080B   25009.19471341 -.00000003  00000-0  00000+0 0  9996
2 53106  70.1418 120.9515 0008220  60.3032 299.8446  6.42557483 58501
FO-118
1 54684U 22167C   25012.73349878  .00156522  00000-0  14663-2 0  9997
2 54684  97.6113 173.1264 0002048 100.0289 260.1202 15.66721484116627
SO-120
1 56992U 23084BU  25012.59976563  .00239095  00000-0  17037-2 0  9996
2 56992  97.5315 145.3054 0007835 321.2646  38.8055 15.73087548 88487
UmKA 1 (RS40S)
1 57172U 23091G   25012.89347046  .00007617  00000-0  44057-3 0  9992
2 57172  97.5833  69.1506 0016484 121.0600 239.2251 15.12431426 85139
CubeBel-2 (EU11S)
1 57175U 23091K   25012.83979976  .00011016  00000-0  59358-3 0  9990
2 57175  97.5832  69.5174 0014302 130.8450 229.4024 15.14888419 85155
VERONIKA
1 58261U 23174F   25012.73565250  .00043067  00000-0  10671-2 0  9999
2 58261  97.4365  93.7818 0008022 218.2039 141.8639 15.40246957 65737
KAFASAT
1 58317U 23174BP  25012.51326754  .00100123  00000-0  15461-2 0  9990
2 58317  97.4266  96.0409 0005829 195.6346 164.4729 15.53754482 65880
ENSO
1 58470U 23185J   25012.83270791  .00031571  00000-0  82514-3 0  9990
2 58470  97.3983  85.0517 0008458 252.9328 107.0991 15.38676062 62196
EIRSAT-1
1 58472U 23185L   25012.79748915  .00040711  00000-0  95924-3 0  9990
2 58472  97.3978  85.5173 0007875 252.9315 107.1070 15.41784502 62229
SONATE-2
1 59112U 24043Q   25012.31177220  .00017407  00000-0  63376-3 0  9991
2 59112  97.4955 141.5253 0011708 282.3052  77.6876 15.28217739 47635
MO-122
1 60209U 24125G   25012.54966651  .00019028  00000-0  68471-3 0  9992
2 60209  97.2958 226.4186 0021467 310.3769  49.5596 15.28422982 29289
GRBBeta
1 60237U 24128C   25012.76992401  .00004482  00000-0  36668-3 0  9993
2 60237  61.9915 234.0764 0035246  22.6859 337.5779 15.00361832 28009
Curium One
1 60242U 24128H   25012.78118749  .00007085  00000-0  55562-3 0  9992
2 60242  61.9818 233.9179 0035126  16.2657 343.9551 15.01336691 28013
ROBUSTA-3A
1 60243U 24128J   25012.01225308  .00007953  00000-0  62730-3 0  9998
2 60243  61.9888 236.9869 0033143  13.6867 346.5113 15.01039939 27894
CatSat
1 60246U 24125J   25012.58981700  .00013591  00000-0  51767-3 0  9998
2 60246  97.2756 227.0172 0045114 260.1409  99.4734 15.25869749 27386
AO-123
1 61781U 24199AY  25012.79047689  .00010471  00000-0  42286-3 0  9996
2 61781  97.3773 242.5134 0017645   6.4173 353.7288 15.24808742 54338
POEM 4 (BGS ARPIT)
1 62461U 24253C   25012.50132257  .00085602  00000-0  59257-3 0  9992
2 62461  55.2196 193.9288 0004226 299.8570  60.2057 15.73844782  2004
